Regional Weather Roundup
Issued by NWS

Home | Current Version | Previous Version | Text Only | Print | Product List | Glossary On
Versions: 1 2 3 4 5 6 7 8 9 10 11 12 13 14 15 16 17 18 19 20 21 22 23 24 25 26 27 28 29 30 31 32 33 34 35 36 37 38 39 40 41 42 43 44 45 46 47 48 49 50
000
ASPQ40 PGUM 020410
RWRPQ
WEATHER ROUNDUP FOR THE MARIANAS AND MICRONESIA
NATIONAL WEATHER SERVICE TIYAN GU
200 PM CHST MON MAR 02 2015

GUZ001>004-020500-
MARIANA ISLANDS-

CITY           SKY/WX    TMP DP  RH WIND       PRES   REMARKS
GUAM AIRPORT   MOSUNNY   82  73  74 E17G23    29.84F
ANDERSEN AFB   PTSUNNY   84  72  65 E18       29.84F
ROTA AIRPORT   NOT AVBL
TINIAN AP      MOSUNNY   82  70  65 E16       29.83F
SAIPAN AP      MOSUNNY   84  70  61 E16G25    29.84F

$$

PMZ161-020500-
REPUBLIC OF PALAU-

CITY           SKY/WX    TMP DP  RH WIND       PRES   REMARKS
KOROR AP       CLOUDY    82  77  83 NE8G17    29.78R HX  91
KOROR WSO      NOT AVBL

$$

PMZ171>174-020500-
FEDERATED STATES OF MICRONESIA-

CITY           SKY/WX    TMP DP  RH WIND       PRES   REMARKS
YAP AIRPORT    LGT RAIN  81  75  83 NE15G26   29.76
CHUUK AP       CLOUDY    84  77  79 NE9       29.72  HX  94
POHNPEI AP     NOT AVBL
POHNPEI WSO    NOT AVBL
KOSRAE AP      NOT AVBL

$$

PMZ181-020500-
REPUBLIC OF THE MARSHALL ISLANDS-

CITY           SKY/WX    TMP DP  RH WIND       PRES   REMARKS
KWAJALEIN AP   MOSUNNY   86  73  66 NE8       29.68F HX  93
MAJURO AP      MOSUNNY   86  77  74 E9        29.65F HX  97
MAJURO WSO     NOT AVBL

$$



USA.gov is the U.S. government's official web portal to all federal, state and local government web resources and services.